"Pseudo-MPEC" for ZTF0Fal

Created 2020 Oct 20 1:07:35 UT using Find_Orb

Click here for an explanation of pseudo-MPECs

 
 Astrometry: 
     ZTF0Fal  C2020 10 16.29608801 18 32.26 -12 19 57.1    ~AG7q 18.36RUNEOCPI41
     ZTF0Fal  C2020 10 16.29643501 18 34.39 -12 19 33.9    ~AG7q 18.36RUNEOCPI41
     ZTF0Fal  C2020 10 16.29796301 18 46.51 -12 17 24.8    ~AG7q 18.19RUNEOCPI41
     ZTF0Fal  C2020 10 16.29831001 18 48.82 -12 16 59.3    ~AG7q 18.19RUNEOCPI41

Station data:
(I41) Palomar Mountain--ZTF  (N33.357340 W116.859780)  US/California. 1.2-m
   f/2.44 Oschin Schmidt + CCD.

Orbital elements:  ZTF0Fal
   Perigee 2020 Oct 14.387963 +/- 45.4 TT =  9:18:40 (JD 2459136.887963)
Epoch 2020 Oct 16.0 TT = JDT 2459138.5                        AutoNEOCP
M 122.11652684 +/- 44               (J2000 equator)
n  75.75290764 +/- 0.316            Peri.  179.51964 +/- 90
a119399.901 +/- 4.02e+7             Node    39.27340 +/- 80
e   0.2603647 +/- 0.128             Incl.   28.81204 +/- 2.7
P6843.17m/4.752d           H 32.8   G  0.15   U 12.0  SR
q 88312.3735 +/- 2.51e+7    Q 150487.429 +/- 1.04e+8
From 4 observations 2020 Oct. 16 (3.2 min); mean residual 2".69
Residuals in arcseconds: 
201016 I41  3.2+  2.2+    201016 I41  2.9+  1.7+    
201016 I41  4.3-  2.9-    201016 I41  1.9-  1.1-    

Ephemerides (geocentric):
Date (UTC) HH   RA              Dec         delta   r     elong  mag " sig PA
---- -- -- --  -------------   -----------  ------ ------ -----  --- ---- ---
2020 10 20 01  21 14 44.131   -28 33 05.88  115381 0.9960 105.2 19.9  88d   1
2020 10 20 02  21 29 15.970   -28 15 01.65  117144 0.9960 108.3 19.8  88d   1
2020 10 20 03  21 43 16.650   -27 52 00.90  118888 0.9960 111.2 19.7  88d   1
2020 10 20 04  21 56 46.871   -27 24 37.11  120607 0.9961 114.1 19.7  89d   1
2020 10 20 05  22 09 47.552   -26 53 21.03  122297 0.9961 116.8 19.6  89d   1
2020 10 20 06  22 22 19.783   -26 18 40.65  123955 0.9961 119.5 19.6  90d   1
2020 10 20 07  22 34 24.774   -25 41 01.24  125578 0.9961 122.1 19.5  90d   1
2020 10 20 08  22 46 03.817   -25 00 45.51  127162 0.9962 124.6 19.5  89d 179
2020 10 20 09  22 57 18.253   -24 18 13.72  128706 0.9962 127.1 19.4  89d 179
2020 10 20 10  23 08 09.439   -23 33 43.85  130206 0.9962 129.5 19.4  88d 177
2020 10 20 11  23 18 38.731   -22 47 31.83  131661 0.9962 131.8 19.4  88d 177
2020 10 20 12  23 28 47.466   -21 59 51.67  133069 0.9963 134.1 19.3  89d 177
2020 10 20 13  23 38 36.948   -21 10 55.69  134429 0.9963 136.2 19.3  89d 177
2020 10 20 14  23 48 08.440   -20 20 54.68  135738 0.9963 138.4 19.2  90d 177
2020 10 20 15  23 57 23.156   -19 29 58.06  136996 0.9963 140.5 19.2  88d 176
2020 10 20 16  00 06 22.263   -18 38 14.02  138202 0.9963 142.5 19.2  86d 175
2020 10 20 17  00 15 06.871   -17 45 49.69  139355 0.9963 144.4 19.1  86d 175
2020 10 20 18  00 23 38.041   -16 52 51.24  140453 0.9964 146.4 19.1  87d 175
2020 10 20 19  00 31 56.779   -15 59 24.02  141497 0.9964 148.2 19.0  87d 175
2020 10 20 20  00 40 04.044   -15 05 32.60  142485 0.9964 150.0 19.0  84d 174
2020 10 20 21  00 48 00.744   -14 11 20.95  143416 0.9964 151.7 19.0  85d 174
2020 10 20 22  00 55 47.743   -13 16 52.44  144291 0.9964 153.4 18.9  85d 174
2020 10 20 23  01 03 25.862   -12 22 09.97  145109 0.9964 155.0 18.9  76d 171
2020 10 21 00  01 10 55.881   -11 27 15.98  145869 0.9964 156.5 18.9  76d 171
2020 10 21 01  01 18 18.546   -10 32 12.56  146572 0.9964 157.9 18.8  76d 171
2020 10 21 02  01 25 34.568   -09 37 01.45  147216 0.9964 159.2 18.8  76d 171
2020 10 21 03  01 32 44.627   -08 41 44.12  147801 0.9964 160.4 18.8  77d 171
2020 10 21 04  01 39 49.377   -07 46 21.79  148329 0.9964 161.5 18.8  70d 171
2020 10 21 05  01 46 49.447   -06 50 55.47  148797 0.9964 162.4 18.7  70d 171
2020 10 21 06  01 53 45.444   -05 55 26.00  149206 0.9964 163.1 18.7  70d 171
2020 10 21 07  02 00 37.956   -04 59 54.06  149556 0.9964 163.7 18.7  70d 171
2020 10 21 08  02 07 27.556   -04 04 20.19  149847 0.9964 164.1 18.7  70d 171
2020 10 21 09  02 14 14.803   -03 08 44.87  150079 0.9964 164.2 18.7  71d 171
2020 10 21 10  02 21 00.246   -02 13 08.45  150251 0.9963 164.1 18.7  71d 171
2020 10 21 11  02 27 44.422   -01 17 31.26  150364 0.9963 163.9 18.7  71d 171
2020 10 21 12  02 34 27.868   -00 21 53.56  150417 0.9963 163.4 18.7  71d 171
2020 10 21 13  02 41 11.112   +00 33 44.39  150412 0.9963 162.7 18.7  71d 171
2020 10 21 14  02 47 54.685   +01 29 22.36  150346 0.9963 161.8 18.8  71d 171
2020 10 21 15  02 54 39.117   +02 25 00.09  150222 0.9963 160.9 18.8  70d 171
2020 10 21 16  03 01 24.942   +03 20 37.30  150038 0.9963 159.8 18.8  70d 171
2020 10 21 17  03 08 12.703   +04 16 13.66  149794 0.9962 158.5 18.9  70d 171
2020 10 21 18  03 15 02.948   +05 11 48.76  149492 0.9962 157.2 18.9  70d 171
2020 10 21 19  03 21 56.239   +06 07 22.12  149131 0.9962 155.8 18.9  70d 171
2020 10 21 20  03 28 53.149   +07 02 53.15  148711 0.9962 154.4 19.0  70d 171
2020 10 21 21  03 35 54.271   +07 58 21.11  148232 0.9961 152.9 19.0  70d 171
2020 10 21 22  03 43 00.215   +08 53 45.11  147695 0.9961 151.3 19.1  70d 171
2020 10 21 23  03 50 11.614   +09 49 04.09  147099 0.9961 149.6 19.1  69d 171
2020 10 22 00  03 57 29.123   +10 44 16.74  146446 0.9960 148.0 19.1  69d 171